Content
SEND FEEDBACK

Daily
Averages
Monthly
Summary
United States of America

RAPID CITY, SOUTH DAKOTA


Home > North America > United States > South Dakota
Elevation: 963 meters     Latitude: 44 03N     Longitude: 103 04W

WEATHER
 
SELECT A DAY
Number of Records: 203,364;   Date Range: 1/1/95 - 10/24/14
 
SHARE

PRINT THIS DATA

[ ← Previous Day ]
WEATHER ALMANAC - 18 AUGUST, 2014
[ Next Day → ]
[ °F ]   °C
Weather ElementAverageHighLow
Temperature20.6 °C27.8 °C (3:52 pm)13.3 °C (4:52 am)
Dewpoint12.6 °C14.4 °C (4:52 pm)11.1 °C (3:52 pm)
Humidity64.1 %97 % (4:03 am)35 % (4:52 pm)
Barometer1012.9 hPa1016.3 hPa (3:32 am)1010.5 hPa (7:52 pm)
Wind Speed19.8 km/h42.6 km/h (11:52 am)
Wind Gust53.8 km/h (10:52 am)
Weather ElementAverage
Visibility16.1 km
Wind DirectionWSW (260 °)

Weather ElementTotal
Precipitation---
Cooling Degree Days2.2 (Base 18.3)
Growing Degree Days10.6 (Base 10)
Averaged from 24 records on 18 August, 2014
WEATHER CONDITIONS BREAKOUT
WIND DIRECTION BREAKOUT
WEATHER BY HOUR - 18 AUGUST, 2014
[ °F ]   °C
Local TimeTemperatureDewpointHumidityBarometerVisibilityWind DirectionWind SpeedGust SpeedPrecipitationEventsConditions
12:52 AM16 °C14 °C88 %1016.3 hPa16.1 kmSSE (160°)5.6 km/hClear
1:52 AM15 °C14.4 °C96 %1013.9 hPa16.1 kmWSW (250°)5.6 km/hClear
2:52 AM14.4 °C13.3 °C93 %1014.6 hPa16.1 kmCalmClear
3:52 AM14.4 °C13.3 °C93 %1014.6 hPa16.1 kmSSE (160°)5.6 km/hClear
4:52 AM13.3 °C12.8 °C97 %1013.9 hPa16.1 kmNW (310°)7.4 km/hClear
5:52 AM15 °C11.7 °C81 %1013.9 hPa16.1 kmNW (310°)18.5 km/hClear
6:52 AM16.1 °C12.2 °C78 %1013.5 hPa16.1 kmNW (310°)14.8 km/hPartly Cloudy
7:52 AM20 °C12.2 °C61 %1013.5 hPa16.1 kmNW (310°)16.7 km/hClear
8:52 AM22.2 °C13.3 °C57 %1013.5 hPa16.1 kmNNW (340°)33.3 km/h40.7 km/hClear
9:52 AM23.3 °C12.8 °C52 %1013.5 hPa16.1 kmNNW (340°)33.3 km/h48.1 km/hClear
10:52 AM24.4 °C13.3 °C50 %1013.2 hPa16.1 kmNNW (340°)40.7 km/h53.8 km/hClear
11:52 AM25.6 °C12.8 °C45 %1012.5 hPa16.1 kmNNW (330°)42.6 km/h53.8 km/hClear
12:52 PM26.1 °C12.8 °C44 %1012.5 hPa16.1 kmNorth (360°)37 km/h48.1 km/hClear
1:52 PM27.2 °C12.8 °C41 %1011.9 hPa16.1 kmNorth (350°)35.2 km/h50.1 km/hClear
2:52 PM27.8 °C11.7 °C37 %1011.5 hPa16.1 kmNorth (350°)38.9 km/h51.8 km/hClear
3:52 PM27.8 °C11.7 °C37 %1011.2 hPa16.1 kmNorth (350°)37 km/h51.8 km/hClear
4:52 PM27.8 °C11.1 °C35 %1010.8 hPa16.1 kmNorth (350°)29.6 km/h46.3 km/hClear
5:52 PM26.7 °C11.1 °C38 %1010.5 hPa16.1 kmNorth (360°)24.1 km/hClear
6:52 PM25 °C12.8 °C47 %1010.8 hPa16.1 kmENE (70°)5.6 km/hClear
7:52 PM20 °C13.3 °C65 %1011.5 hPa16.1 kmNE (40°)9.3 km/hClear
8:52 PM18.9 °C12.2 °C65 %1011.5 hPa16.1 kmENE (60°)14.8 km/hClear
9:52 PM17 °C12 °C72 %1014.2 hPa16.1 kmSSW (210°)5.6 km/hClear
10:52 PM15.6 °C12.2 °C80 %1011.9 hPa16.1 kmWNW (290°)7.4 km/hClear
11:52 PM14.4 °C12.2 °C87 %1011.9 hPa16.1 kmWNW (290°)7.4 km/hClear
Hourly data recorded from KRAP, located 0 kilometers away from Rapid City, South Dakota







STORIES FROM OUR PARTNERS